User: anonymous   Login
Location: Unspecified
(0.0000°N, 0.0000°E)
Time: 19:56:25
(UTC+00:00)
Language:

Oscar 17 - Orbit

View from above orbital plane
View from above orbital plane
View from above satellite
View from above satellite

Ground track
Ground track

The orbit data is extracted from the following two-line orbital elements,

1 20440U 90005E   22268.49132022  .00000117  00000-0  59233-4 0  9992
2 20440  98.8310 242.2784 0009877 233.0199 241.0304 14.33359488707330
Epoch (UTC): 25 September 2022 11:47:30
Eccentricity: 0.0009877
inclination: 98.8310°
perigee height: 773 km
apogee height: 787 km
right ascension of ascending node: 242.2784°
argument of perigee: 233.0199°
revolutions per day: 14.33359488
mean anomaly at epoch: 241.0304°
orbit number at epoch: 70733

The dashed part of the orbit path shows where the satellite is in the earth's shadow,  

DLR